FW6550 Weather Reports


time (UTC)temp
C
wind
direction
speed
KPH
gust
KPH
rain 1hr
cm
rain 24hr
cm
rain mn
cm
humidity
%
barometer
mb
20260508180252 20 0 0.0 4.8 0.00 0.00 0.00 66 1015.7
20260508170112 21 0 0.0 8.0 0.00 0.00 0.00 63 1017.0
20260508164534 21 0 0.0 1.6 0.00 0.00 0.00 63 1017.2
20260508163031 20 0 0.0 4.8 0.00 0.00 0.00 64 1017.4
20260508161534 20 0 1.6 6.4 0.00 0.00 0.00 61 1017.5
20260508160036 20 90 0.0 6.4 0.00 0.00 0.00 65 1017.3
20260508154534 20 17 1.6 6.4 0.00 0.00 0.00 63 1017.3
20260508153042 20 95 0.0 6.4 0.00 0.00 0.00 65 1017.7
20260508151532 18 5 1.6 12.9 0.00 0.00 0.00 67 1017.8
20260508150037 18 24 1.6 9.7 0.00 0.00 0.00 71 1017.8
20260508144539 17 0 0.0 8.0 0.00 0.00 0.00 75 1017.8
20260508143037 16 0 1.6 6.4 0.00 0.00 0.00 76 1017.5
20260508141532 16 28 3.2 9.7 0.00 0.00 0.00 77 1017.6
20260508140036 16 26 1.6 12.9 0.00 0.00 0.00 78 1017.9
20260508134534 15 0 0.0 6.4 0.00 0.00 0.00 80 1018.2
20260508133054 15 0 0.0 3.2 0.00 0.00 0.00 80 1018.3
20260508131532 15 0 0.0 3.2 0.00 0.00 0.00 80 1018.3
20260508130035 15 47 0.0 4.8 0.00 0.00 0.00 80 1018.2
20260508124534 14 0 0.0 3.2 0.00 0.03 0.00 80 1018.3
20260508123043 13 0 0.0 3.2 0.00 0.03 0.00 79 1018.1
20260508121532 13 0 0.0 4.8 0.00 0.03 0.00 78 1018.1
20260508120037 13 0 0.0 3.2 0.00 0.03 0.00 76 1017.9
20260508114536 12 0 0.0 4.8 0.00 0.20 0.00 74 1017.5
20260508113034 12 0 0.0 1.6 0.00 0.20 0.00 73 1017.2
20260508111534 12 0 0.0 3.2 0.00 0.20 0.00 73 1016.7
20260508110032 12 0 0.0 0.0 0.00 0.20 0.00 75 1016.7
20260508104532 12 0 0.0 1.6 0.00 0.20 0.00 74 1016.5
20260508103033 12 0 0.0 0.0 0.00 0.20 0.00 75 1016.6
20260508101536 12 0 0.0 0.0 0.00 0.20 0.00 77 1016.6
20260508100035 12 0 0.0 0.0 0.00 0.20 0.00 78 1016.4
20260508094534 13 0 0.0 0.0 0.00 0.20 0.00 79 1016.4
20260508093034 13 0 0.0 0.0 0.00 0.20 0.00 79 1016.4
20260508091531 13 0 0.0 0.0 0.00 0.20 0.00 79 1016.2
20260508090035 13 0 0.0 4.8 0.00 0.20 0.00 79 1015.4
20260508084534 13 0 0.0 0.0 0.00 0.28 0.00 78 1015.0
20260508083035 13 0 0.0 0.0 0.00 0.28 0.00 76 1015.2
20260508081535 13 0 0.0 0.0 0.00 0.28 0.00 74 1015.2
20260508080034 13 0 0.0 3.2 0.00 0.28 0.00 67 1015.2
20260508074537 13 0 0.0 3.2 0.00 0.36 0.00 61 1015.2
20260508073034 13 0 0.0 0.0 0.00 0.36 0.00 63 1015.2
20260508071533 13 0 0.0 0.0 0.00 0.36 0.00 64 1015.7
20260508070035 13 0 0.0 0.0 0.00 0.36 0.00 67 1015.9
20260508064535 14 0 0.0 0.0 0.00 0.76 0.00 68 1015.9